Regional Weather Roundup
Issued by NWS

Home | Current Version | Previous Version | Text Only | Print | Product List | Glossary On
Versions: 1 2 3 4 5 6 7 8 9 10 11 12 13 14 15 16 17 18 19 20 21 22 23 24 25 26 27 28 29 30 31 32 33 34 35 36 37 38 39 40 41 42 43 44 45 46 47 48 49 50
000
ASUS43 KBIS 231902
RWRND

NORTH DAKOTA REGIONAL WEATHER ROUNDUP
NATIONAL WEATHER SERVICE BISMARCK ND
200 PM CDT SUN JUL 23 2017

NOTE: "FAIR" INDICATES FEW OR NO CLOUDS BELOW 12,000 FEET WITH NO
SIGNIFICANT WEATHER AND/OR OBSTRUCTIONS TO VISIBILITY.


NDZ001>003-009>011-017-232000-
NORTHWEST NORTH DAKOTA

CITY           SKY/WX    TMP DP  RH WIND       PRES   REMARKS
WILLISTON      SUNNY     87  51  28 VRB7      29.99F
MINOT          SUNNY     82  52  35 E9        30.01F
MINOT AFB      SUNNY     78  54  42 S7        30.00F
$$

NDZ018>021-031>035-040>046-232000-
SOUTHWEST NORTH DAKOTA

CITY           SKY/WX    TMP DP  RH WIND       PRES   REMARKS
BISMARCK       SUNNY     81  54  39 W6        30.04F
DICKINSON      SUNNY     84  49  29 S6        30.03F
GARRISON         N/A     79  56  45 SW8       30.03F
HETTINGER ARPT SUNNY     86  47  25 S6        30.06F
$$

NDZ004>008-012>016-024-026-027-054-232000-
NORTHEAST NORTH DAKOTA

CITY           SKY/WX    TMP DP  RH WIND       PRES   REMARKS
GRAND FORKS    PTSUNNY   74  62  66 VRB3      30.01F
GRND FRKS AFB  PTSUNNY   73  60  63 E5        30.02F
DEVILS LAKE    MOSUNNY   73  56  54 VRB3      30.05F
$$

NDZ022-023-025-028>030-036>039-047>053-232000-
SOUTHEAST NORTH DAKOTA

CITY           SKY/WX    TMP DP  RH WIND       PRES   REMARKS
FARGO          CLOUDY    71  60  68 NW8       30.02S
JAMESTOWN      MOSUNNY   78  59  51 N9        30.03F
$$





USA.gov is the U.S. government's official web portal to all federal, state and local government web resources and services.